Flight Track Log - Related Links

Times and Time Zones

All times are in EDT time to prevent confusion due to time zone crossing. See the XOJ552 flight status page for this flight to view local times or setup timezone preferences in your user account.

Time Position Orientation Groundspeed Altitude Reporting Facility
EDT Latitude Longitude Course Direction KTS MPH feet Rate Location/Type
08:21PM 39.2944 -120.2481 194° South 279 321 13,000  Level Oakland Center
08:22PM 39.1919 -120.2472 180° South 350 403 17,300 4,098 Climbing Oakland Center
08:23PM 39.0917 -120.2275 171° South 361 415 21,400 3,049 Climbing Oakland Center
08:24PM 38.9825 -120.2053 171° South 387 445 23,500 2,146 Climbing Oakland Center
08:25PM 39.3069 -119.6500 180° South  Level FlightAware Approximate
08:25PM 38.8592 -120.1797 171° South 437 503 25,800  Level Oakland Center
08:26PM 38.7319 -120.1536 171° South 457 526 28,200 2,361 Climbing Oakland Center
08:27PM 38.6006 -120.1267 171° South 470 541 30,600 2,293 Climbing Oakland Center
08:28PM 38.4717 -120.0997 171° South 466 536 32,900 1,171 Climbing Oakland Center
08:29PM 38.3322 -120.0728 171° South 492 566 33,000 738 Climbing Oakland Center
08:30PM 38.1933 -120.0444 171° South 502 578 34,400 1,659 Climbing Oakland Center
08:31PM 38.0572 -120.0164 171° South 497 572 36,400 2,293 Climbing Oakland Center
08:32PM 37.9097 -119.9878 171° South 461 531 39,100 2,016 Climbing Oakland Center
08:33PM 37.7878 -119.9631 171° South 446 513 40,500 934 Climbing Oakland Center
08:34PM 37.6636 -119.9397 172° South 447 514 41,000 246 Climbing Oakland Center
08:35PM 37.5269 -119.9178 173° South 492 566 41,000  Level Oakland Center
08:36PM 37.3956 -119.8903 171° South 478 550 41,000  Level Oakland Center
08:37PM 37.2644 -119.8642 171° South 474 545 41,000  Level Oakland Center
08:38PM 37.1350 -119.8383 171° South 469 540 41,000 -49 Level Oakland Center
08:39PM 37.0019 -119.8117 171° South 467 537 40,900  Descending Oakland Center
08:40PM 36.8717 -119.7864 171° South 472 543 41,000 49 Climbing Oakland Center
08:41PM 36.7433 -119.7600 171° South 468 539 41,000  Level Oakland Center
08:42PM 36.6122 -119.7336 171° South 474 545 41,000 -443 Level Oakland Center
08:43PM 36.4828 -119.7083 171° South 472 543 40,100 -1,171 Descending Oakland Center
08:44PM 36.3536 -119.6831 171° South 468 539 38,600 -1,512 Descending Oakland Center
08:46PM 36.2000 -119.6531 171° South 461 531 37,000 -787 Descending Oakland Center
08:47PM 36.0769 -119.6300 171° South 448 516 37,000  Level Oakland Center
08:48PM 35.9542 -119.6172 175° South 440 506 37,000 -146 Level Oakland Center
08:49PM 35.8469 -119.6661 200° South 428 493 36,700 -976 Descending Oakland Center
08:50PM 35.7794 -119.7756 233° Southwest 409 471 35,000 -1,770 Descending Oakland Center
08:51PM 35.7153 -119.8911 236° Southwest 409 471 33,100 -1,918 Descending Oakland Center
08:52PM 35.6539 -120.0094 237° Southwest 411 473 31,100 -1,869 Descending Oakland Center
08:53PM 35.5694 -120.1039 222° Southwest 431 496 29,300 -1,805 Descending Oakland Center
08:54PM 35.4533 -120.0689 166° South 440 506 27,400 -1,854 Descending Oakland Center
08:55PM 35.3636 -119.9678 137° Southeast 434 499 25,500 -1,672 Descending Oakland Center
08:56PM 35.2781 -119.8719 138° Southeast 419 482 24,000 -985 Descending Oakland Center
08:57PM 35.1778 -119.7581 137° Southeast 410 472 23,300 -1,200 Descending Los Angeles Center
08:58PM 35.0681 -119.6339 137° Southeast 444 511 21,300 -1,742 Descending Los Angeles Center
08:59PM 34.9792 -119.5339 137° Southeast 437 503 19,700 -1,548 Descending Los Angeles Center
09:00PM 34.8917 -119.4361 137° Southeast 429 494 18,100 -1,509 Descending Los Angeles Center
09:02PM 34.7392 -119.2681 138° Southeast 410 472 15,400 -1,447 Descending Oakland Center
09:03PM 34.6608 -119.1781 137° Southeast 394 453 14,000 -1,105 Descending Oakland Center
09:03PM 34.6453 -119.1611 138° Southeast 389 448 14,000  Level Los Angeles Center

Login

Don't have an account? Register now (free) for customized features, flight alerts, and more!